Brookings, SD

4:01 PM CST on February 27, 2017 (GMT -0600)
Brookings Municipal

Weather History for KBKX - March, 2013

Change the Weather History Date:

Sunday, March 31, 2013

  Actual Average Record
Temperature  
Mean Temperature 28 °F -  
Max Temperature 35 °F 44 °F 80 °F (2012)
Min Temperature 21 °F 26 °F 21 °F (2004)
Degree Days  
Heating Degree Days 37    
Moisture  
Dew Point 23 °F    
Average Humidity 73    
Maximum Humidity 100    
Minimum Humidity 47    
Precipitation  
Precipitation 0.00 in - - ()
Sea Level Pressure  
Sea Level Pressure 30.02 in    
Wind  
Wind Speed 14 mph (NW)    
Max Wind Speed 25 mph    
Max Gust Speed 32 mph    
Visibility 9 miles    
Events      
Averages and records for this station are not official NWS values.
T = Trace of Precipitation, MM = Missing Value Source: NWS Daily Summary

Daily Weather History Graph

Daily Weather History Graph

Search for Another Location

Airport or City:

Trip Planner

Search our weather history database for the weather conditions in past years. The results will help you decide how hot, cold, wet, or windy it might be!

Date:

Astronomy

Mar. 31, 2013 Rise Set
Actual Time 7:09 AM CDT 7:53 PM CDT
Civil Twilight 6:40 AM CDT 8:22 PM CDT
Nautical Twilight 6:05 AM CDT 8:57 PM CDT
Astronomical Twilight 5:29 AM CDT 9:34 PM CDT
Moon 12:09 AM CDT (3/31) 9:49 AM CDT (3/31)
Length of Visible Light 13h 42m
Length of Day
12h 43m
Waning Gibbous, 77% of the Moon is Illuminated
Mar 31
Waning Gibbous
Apr 2
Last Quarter
Apr 10
New
Apr 18
First Quarter
Apr 25
Full

Hourly Weather History & Observations

Time (CDT) Temp. Windchill Dew Point Humidity Pressure Visibility Wind Dir Wind Speed Gust Speed Precip Events Conditions
12:15 AM 33.8 °F 26.4 °F 33.8 °F 100% 29.97 in 0.2 mi NNW 9.2 mph - N/A   Overcast
12:35 AM 33.8 °F 25.8 °F 33.8 °F 100% 29.97 in 1.2 mi NW 10.4 mph - N/A   Overcast
12:55 AM 33.8 °F 25.3 °F 33.8 °F 100% 29.98 in 3.0 mi WNW 11.5 mph - N/A   Overcast
1:15 AM 33.8 °F 24.8 °F 33.8 °F 100% 29.97 in 3.0 mi NNW 12.7 mph - N/A   Overcast
1:35 AM 33.8 °F 25.8 °F 33.8 °F 100% 29.97 in 5.0 mi WNW 10.4 mph - N/A   Mostly Cloudy
1:55 AM 33.8 °F 25.8 °F 33.8 °F 100% 29.97 in 5.0 mi WNW 10.4 mph - N/A   Overcast
2:15 AM 33.8 °F 27.0 °F 32.0 °F 93% 29.97 in 7.0 mi WNW 8.1 mph - N/A   Overcast
2:35 AM 33.8 °F 27.7 °F 32.0 °F 93% 29.96 in 8.0 mi WNW 6.9 mph - N/A   Overcast
2:55 AM 33.8 °F 26.4 °F 30.2 °F 87% 29.95 in 9.0 mi WNW 9.2 mph - N/A   Mostly Cloudy
3:15 AM 33.8 °F 28.6 °F 30.2 °F 87% 29.95 in 8.0 mi WNW 5.8 mph - N/A   Partly Cloudy
3:35 AM 33.8 °F 27.0 °F 30.2 °F 87% 29.94 in 9.0 mi West 8.1 mph - N/A   Clear
3:55 AM 33.8 °F 27.7 °F 30.2 °F 87% 29.94 in 10.0 mi WNW 6.9 mph - N/A   Clear
4:15 AM 33.8 °F 26.4 °F 30.2 °F 87% 29.93 in 10.0 mi West 9.2 mph - N/A   Clear
4:35 AM 35.6 °F 28.0 °F 32.0 °F 87% 29.92 in 10.0 mi WNW 10.4 mph 18.4 mph N/A   Clear
4:55 AM 35.6 °F 26.2 °F 32.0 °F 87% 29.92 in 10.0 mi WNW 15.0 mph - N/A   Clear
5:15 AM 33.8 °F 24.3 °F 30.2 °F 87% 29.92 in 10.0 mi WNW 13.8 mph - N/A   Clear
5:35 AM 33.8 °F 24.8 °F 28.4 °F 81% 29.92 in 10.0 mi WNW 12.7 mph - N/A   Clear
5:55 AM 33.8 °F 24.8 °F 28.4 °F 81% 29.93 in 10.0 mi WNW 12.7 mph - N/A   Clear
6:15 AM 32.0 °F 22.1 °F 28.4 °F 87% 29.92 in 10.0 mi WNW 13.8 mph - N/A   Clear
6:35 AM 32.0 °F 21.6 °F 28.4 °F 87% 29.92 in 10.0 mi WNW 15.0 mph - N/A   Clear
6:55 AM 32.0 °F 21.6 °F 26.6 °F 80% 29.92 in 10.0 mi NW 15.0 mph - N/A   Scattered Clouds
7:15 AM 30.2 °F 19.3 °F 26.6 °F 86% 29.93 in 10.0 mi WNW 15.0 mph - N/A   Partly Cloudy
7:35 AM 30.2 °F 19.8 °F 26.6 °F 86% 29.94 in 10.0 mi WNW 13.8 mph - N/A   Partly Cloudy
7:55 AM 30.2 °F 18.5 °F 26.6 °F 86% 29.95 in 10.0 mi NW 17.3 mph - N/A   Mostly Cloudy
8:15 AM 30.2 °F 18.5 °F 26.6 °F 86% 29.96 in 10.0 mi NW 17.3 mph - N/A   Overcast
8:35 AM 30.2 °F 18.5 °F 26.6 °F 86% 29.97 in 9.0 mi NW 17.3 mph 24.2 mph N/A   Overcast
8:55 AM 30.2 °F 18.1 °F 26.6 °F 86% 29.97 in 8.0 mi NW 18.4 mph 26.5 mph N/A   Overcast
9:15 AM 32.0 °F 21.2 °F 26.6 °F 80% 29.98 in 9.0 mi NW 16.1 mph - N/A   Overcast
9:35 AM 30.2 °F 17.4 °F 26.6 °F 86% 29.98 in 9.0 mi NW 20.7 mph 28.8 mph N/A   Overcast
9:55 AM 32.0 °F 18.9 °F 26.6 °F 80% 29.98 in 10.0 mi NW 24.2 mph 32.2 mph N/A   Overcast
10:15 AM 32.0 °F 19.8 °F 26.6 °F 80% 29.99 in 10.0 mi NW 20.7 mph 26.5 mph N/A   Overcast
10:35 AM 33.8 °F 21.3 °F 24.8 °F 70% 30.00 in 10.0 mi NNW 24.2 mph 29.9 mph N/A   Overcast
10:55 AM 33.8 °F 22.5 °F 24.8 °F 70% 30.01 in 10.0 mi NW 19.6 mph 29.9 mph N/A   Overcast
11:15 AM 33.8 °F 21.3 °F 24.8 °F 70% 30.01 in 10.0 mi NNW 24.2 mph 29.9 mph N/A   Overcast
11:35 AM 33.8 °F 22.5 °F 24.8 °F 70% 30.02 in 10.0 mi NNW 19.6 mph - N/A   Overcast
11:55 AM 33.8 °F 21.6 °F 21.2 °F 60% 30.02 in 10.0 mi NNW 23.0 mph 31.1 mph N/A   Overcast
12:15 PM 33.8 °F 21.9 °F 19.4 °F 56% 30.02 in 10.0 mi NNW 21.9 mph 29.9 mph N/A   Mostly Cloudy
12:35 PM 33.8 °F 21.3 °F 21.2 °F 60% 30.02 in 10.0 mi NW 24.2 mph 29.9 mph N/A   Overcast
12:55 PM 33.8 °F 21.9 °F 23.0 °F 65% 30.02 in 10.0 mi NW 21.9 mph - N/A   Overcast
1:15 PM 33.8 °F 21.6 °F 19.4 °F 56% 30.02 in 10.0 mi NW 23.0 mph 29.9 mph N/A   Mostly Cloudy
1:35 PM 33.8 °F 22.2 °F 19.4 °F 56% 30.03 in 10.0 mi NNW 20.7 mph 26.5 mph N/A   Mostly Cloudy
1:55 PM 35.6 °F 24.5 °F 21.2 °F 56% 30.03 in 10.0 mi NW 20.7 mph 27.6 mph N/A   Mostly Cloudy
2:15 PM 35.6 °F 24.8 °F 19.4 °F 52% 30.03 in 10.0 mi NW 19.6 mph 28.8 mph N/A   Mostly Cloudy
2:35 PM 35.6 °F 24.0 °F 19.4 °F 52% 30.03 in 10.0 mi NW 23.0 mph 28.8 mph N/A   Mostly Cloudy
2:55 PM 33.8 °F 21.0 °F 17.6 °F 52% 30.02 in 10.0 mi NW 25.3 mph - N/A   Mostly Cloudy
3:15 PM 35.6 °F 24.8 °F 17.6 °F 48% 30.03 in 10.0 mi NW 19.6 mph 25.3 mph N/A   Partly Cloudy
3:35 PM 33.8 °F 22.5 °F 15.8 °F 48% 30.04 in 10.0 mi North 19.6 mph 26.5 mph N/A   Mostly Cloudy
3:55 PM 32.0 °F 19.8 °F 14.0 °F 48% 30.05 in 10.0 mi NW 20.7 mph 25.3 mph N/A   Overcast
4:15 PM 32.0 °F 20.1 °F 15.8 °F 51% 30.06 in 10.0 mi NW 19.6 mph 23.0 mph N/A   Overcast
4:35 PM 30.2 °F 17.4 °F 12.2 °F 47% 30.06 in 10.0 mi NNW 20.7 mph - N/A   Overcast
4:55 PM 30.2 °F 18.5 °F 14.0 °F 51% 30.06 in 10.0 mi NNW 17.3 mph 25.3 mph N/A   Overcast
5:15 PM 30.2 °F 18.1 °F 15.8 °F 55% 30.06 in 10.0 mi NW 18.4 mph - N/A   Overcast
5:35 PM 28.4 °F 15.8 °F 15.8 °F 59% 30.07 in 10.0 mi NNW 18.4 mph - N/A   Overcast
5:55 PM 28.4 °F 15.8 °F 15.8 °F 59% 30.07 in 10.0 mi NNW 18.4 mph - N/A   Overcast
6:15 PM 28.4 °F 15.4 °F 15.8 °F 59% 30.08 in 10.0 mi NNW 19.6 mph 25.3 mph N/A   Mostly Cloudy
6:35 PM 28.4 °F 16.2 °F 17.6 °F 64% 30.09 in 10.0 mi NNW 17.3 mph 24.2 mph N/A   Scattered Clouds
7:15 PM 28.4 °F 15.1 °F 17.6 °F 64% 30.10 in 10.0 mi NW 20.7 mph 26.5 mph N/A   Mostly Cloudy
7:35 PM 26.6 °F 13.1 °F 14.0 °F 59% 30.11 in 10.0 mi NNW 19.6 mph 25.3 mph N/A   Partly Cloudy
7:55 PM 26.6 °F 13.8 °F 15.8 °F 64% 30.12 in 10.0 mi NNW 17.3 mph 24.2 mph N/A   Clear
8:15 PM 24.8 °F 11.1 °F 15.8 °F 69% 30.13 in 10.0 mi NNW 18.4 mph 23.0 mph N/A   Clear
8:35 PM 24.8 °F 11.5 °F 15.8 °F 69% 30.14 in 10.0 mi NNW 17.3 mph - N/A   Clear
9:15 PM 24.8 °F 11.5 °F 14.0 °F 64% 30.16 in 10.0 mi NNW 17.3 mph - N/A   Clear
9:35 PM 24.8 °F 11.5 °F 15.8 °F 69% 30.17 in 10.0 mi NNW 17.3 mph - N/A   Clear
9:55 PM 24.8 °F 11.5 °F 15.8 °F 69% 30.17 in 10.0 mi NNW 17.3 mph 21.9 mph N/A   Scattered Clouds
10:15 PM 23.0 °F 8.3 °F 15.8 °F 74% 30.18 in 10.0 mi NNW 19.6 mph - N/A   Scattered Clouds
10:35 PM 23.0 °F 9.2 °F 14.0 °F 68% 30.19 in 10.0 mi NW 17.3 mph - N/A   Scattered Clouds
10:55 PM 23.0 °F 8.7 °F 15.8 °F 74% 30.19 in 10.0 mi NW 18.4 mph - N/A   Mostly Cloudy
11:15 PM 21.2 °F 7.8 °F 14.0 °F 74% 30.20 in 10.0 mi NNW 15.0 mph 21.9 mph N/A   Mostly Cloudy
11:35 PM 21.2 °F 7.8 °F 15.8 °F 80% 30.20 in 10.0 mi NNW 15.0 mph - N/A   Partly Cloudy
11:55 PM 21.2 °F 7.8 °F 12.2 °F 68% 30.20 in 10.0 mi NNW 15.0 mph - N/A   Partly Cloudy